<?xml version="1.0" encoding="UTF-8" standalone="no" ?>
<gpx xmlns="http://www.topografix.com/GPX/1/1" xmlns:xsi="http://www.w3.org/2001/XMLSchema-instance" xsi:schemaLocation="http://www.topografix.com/GPX/1/1 http://www.topografix.com/GPX/1/1/gpx.xsd" version="1.1" creator="VisuGPX - https://www.visugpx.com">
  <metadata>
    <name>Tarsul-Saulx-Poiseul</name>
  </metadata>
  <trk>
    <name><![CDATA[track]]></name>
    <extensions>
      <line xmlns="http://www.topografix.com/GPX/gpx_style/0/2">
        <color>0000FF</color>
        <width>4</width>
      </line>
    </extensions>
    <trkseg>
      <trkpt lat="47.53312" lon="4.98817">
        <ele>303</ele>
        <time>2020-12-12T18:44:53Z</time>
      </trkpt>
      <trkpt lat="47.53312" lon="4.98946">
        <ele>308</ele>
        <time>2020-12-12T18:44:53Z</time>
      </trkpt>
      <trkpt lat="47.53404" lon="4.99075">
        <ele>344</ele>
        <time>2020-12-12T18:44:53Z</time>
      </trkpt>
      <trkpt lat="47.53533" lon="4.98979">
        <ele>364</ele>
        <time>2020-12-12T18:44:53Z</time>
      </trkpt>
      <trkpt lat="47.53608" lon="4.98913">
        <ele>371</ele>
        <time>2020-12-12T18:44:53Z</time>
      </trkpt>
      <trkpt lat="47.53695" lon="4.98851">
        <ele>375</ele>
        <time>2020-12-12T18:44:53Z</time>
      </trkpt>
      <trkpt lat="47.53784" lon="4.98799">
        <ele>379</ele>
        <time>2020-12-12T18:44:53Z</time>
      </trkpt>
      <trkpt lat="47.53885" lon="4.98721">
        <ele>376</ele>
        <time>2020-12-12T18:44:53Z</time>
      </trkpt>
      <trkpt lat="47.53966" lon="4.98821">
        <ele>383</ele>
        <time>2020-12-12T18:44:53Z</time>
      </trkpt>
      <trkpt lat="47.54039" lon="4.98924">
        <ele>389</ele>
        <time>2020-12-12T18:44:53Z</time>
      </trkpt>
      <trkpt lat="47.54058" lon="4.98879">
        <ele>384</ele>
        <time>2020-12-12T18:44:53Z</time>
      </trkpt>
      <trkpt lat="47.54109" lon="4.98808">
        <ele>393</ele>
        <time>2020-12-12T18:44:53Z</time>
      </trkpt>
      <trkpt lat="47.54218" lon="4.98923">
        <ele>406</ele>
        <time>2020-12-12T18:44:53Z</time>
      </trkpt>
      <trkpt lat="47.54301" lon="4.99027">
        <ele>412</ele>
        <time>2020-12-12T18:44:53Z</time>
      </trkpt>
      <trkpt lat="47.54375" lon="4.99127">
        <ele>416</ele>
        <time>2020-12-12T18:44:53Z</time>
      </trkpt>
      <trkpt lat="47.54451" lon="4.99231">
        <ele>420</ele>
        <time>2020-12-12T18:44:53Z</time>
      </trkpt>
      <trkpt lat="47.54529" lon="4.99314">
        <ele>419</ele>
        <time>2020-12-12T18:44:53Z</time>
      </trkpt>
      <trkpt lat="47.54599" lon="4.99391">
        <ele>418</ele>
        <time>2020-12-12T18:44:53Z</time>
      </trkpt>
      <trkpt lat="47.5468" lon="4.99498">
        <ele>419</ele>
        <time>2020-12-12T18:44:53Z</time>
      </trkpt>
      <trkpt lat="47.54749" lon="4.99581">
        <ele>420</ele>
        <time>2020-12-12T18:44:53Z</time>
      </trkpt>
      <trkpt lat="47.54827" lon="4.99429">
        <ele>412</ele>
        <time>2020-12-12T18:44:53Z</time>
      </trkpt>
      <trkpt lat="47.54895" lon="4.99319">
        <ele>410</ele>
        <time>2020-12-12T18:44:53Z</time>
      </trkpt>
      <trkpt lat="47.54947" lon="4.99222">
        <ele>406</ele>
        <time>2020-12-12T18:44:53Z</time>
      </trkpt>
      <trkpt lat="47.55002" lon="4.99125">
        <ele>403</ele>
        <time>2020-12-12T18:44:53Z</time>
      </trkpt>
      <trkpt lat="47.55064" lon="4.99019">
        <ele>395</ele>
        <time>2020-12-12T18:44:53Z</time>
      </trkpt>
      <trkpt lat="47.55122" lon="4.98922">
        <ele>387</ele>
        <time>2020-12-12T18:44:53Z</time>
      </trkpt>
      <trkpt lat="47.55199" lon="4.98783">
        <ele>372</ele>
        <time>2020-12-12T18:44:53Z</time>
      </trkpt>
      <trkpt lat="47.55242" lon="4.98705">
        <ele>360</ele>
        <time>2020-12-12T18:44:53Z</time>
      </trkpt>
      <trkpt lat="47.55274" lon="4.98624">
        <ele>349</ele>
        <time>2020-12-12T18:44:53Z</time>
      </trkpt>
      <trkpt lat="47.55253" lon="4.98563">
        <ele>345</ele>
        <time>2020-12-12T18:44:53Z</time>
      </trkpt>
      <trkpt lat="47.55237" lon="4.98502">
        <ele>339</ele>
        <time>2020-12-12T18:44:53Z</time>
      </trkpt>
      <trkpt lat="47.55238" lon="4.98462">
        <ele>334</ele>
        <time>2020-12-12T18:44:53Z</time>
      </trkpt>
      <trkpt lat="47.55282" lon="4.98371">
        <ele>325</ele>
        <time>2020-12-12T18:44:53Z</time>
      </trkpt>
      <trkpt lat="47.55241" lon="4.98303">
        <ele>324</ele>
        <time>2020-12-12T18:44:53Z</time>
      </trkpt>
      <trkpt lat="47.55327" lon="4.98231">
        <ele>325</ele>
        <time>2020-12-12T18:44:53Z</time>
      </trkpt>
      <trkpt lat="47.554" lon="4.98158">
        <ele>330</ele>
        <time>2020-12-12T18:44:53Z</time>
      </trkpt>
      <trkpt lat="47.5547" lon="4.98095">
        <ele>331</ele>
        <time>2020-12-12T18:44:53Z</time>
      </trkpt>
      <trkpt lat="47.55533" lon="4.98038">
        <ele>332</ele>
        <time>2020-12-12T18:44:53Z</time>
      </trkpt>
      <trkpt lat="47.55619" lon="4.97996">
        <ele>333</ele>
        <time>2020-12-12T18:44:53Z</time>
      </trkpt>
      <trkpt lat="47.55689" lon="4.98096">
        <ele>340</ele>
        <time>2020-12-12T18:44:53Z</time>
      </trkpt>
      <trkpt lat="47.55796" lon="4.98015">
        <ele>370</ele>
        <time>2020-12-12T18:44:53Z</time>
      </trkpt>
      <trkpt lat="47.55874" lon="4.97952">
        <ele>385</ele>
        <time>2020-12-12T18:44:53Z</time>
      </trkpt>
      <trkpt lat="47.55938" lon="4.97899">
        <ele>392</ele>
        <time>2020-12-12T18:44:53Z</time>
      </trkpt>
      <trkpt lat="47.56019" lon="4.9783">
        <ele>397</ele>
        <time>2020-12-12T18:44:53Z</time>
      </trkpt>
      <trkpt lat="47.56128" lon="4.97735">
        <ele>394</ele>
        <time>2020-12-12T18:44:53Z</time>
      </trkpt>
      <trkpt lat="47.56204" lon="4.97679">
        <ele>384</ele>
        <time>2020-12-12T18:44:53Z</time>
      </trkpt>
      <trkpt lat="47.56287" lon="4.9761">
        <ele>357</ele>
        <time>2020-12-12T18:44:53Z</time>
      </trkpt>
      <trkpt lat="47.56305" lon="4.97531">
        <ele>356</ele>
        <time>2020-12-12T18:44:53Z</time>
      </trkpt>
      <trkpt lat="47.56378" lon="4.97449">
        <ele>377</ele>
        <time>2020-12-12T18:44:53Z</time>
      </trkpt>
      <trkpt lat="47.56452" lon="4.97369">
        <ele>393</ele>
        <time>2020-12-12T18:44:53Z</time>
      </trkpt>
      <trkpt lat="47.56511" lon="4.97296">
        <ele>396</ele>
        <time>2020-12-12T18:44:53Z</time>
      </trkpt>
      <trkpt lat="47.56551" lon="4.97241">
        <ele>391</ele>
        <time>2020-12-12T18:44:53Z</time>
      </trkpt>
      <trkpt lat="47.56595" lon="4.9719">
        <ele>381</ele>
        <time>2020-12-12T18:44:53Z</time>
      </trkpt>
      <trkpt lat="47.56659" lon="4.97117">
        <ele>360</ele>
        <time>2020-12-12T18:44:53Z</time>
      </trkpt>
      <trkpt lat="47.56788" lon="4.9713">
        <ele>364</ele>
        <time>2020-12-12T18:44:53Z</time>
      </trkpt>
      <trkpt lat="47.56838" lon="4.97205">
        <ele>366</ele>
        <time>2020-12-12T18:44:53Z</time>
      </trkpt>
      <trkpt lat="47.56883" lon="4.97288">
        <ele>370</ele>
        <time>2020-12-12T18:44:53Z</time>
      </trkpt>
      <trkpt lat="47.56959" lon="4.97298">
        <ele>369</ele>
        <time>2020-12-12T18:44:53Z</time>
      </trkpt>
      <trkpt lat="47.57022" lon="4.97308">
        <ele>370</ele>
        <time>2020-12-12T18:44:53Z</time>
      </trkpt>
      <trkpt lat="47.57144" lon="4.97487">
        <ele>375</ele>
        <time>2020-12-12T18:44:53Z</time>
      </trkpt>
      <trkpt lat="47.57196" lon="4.97599">
        <ele>376</ele>
        <time>2020-12-12T18:44:53Z</time>
      </trkpt>
      <trkpt lat="47.57234" lon="4.97697">
        <ele>382</ele>
        <time>2020-12-12T18:44:53Z</time>
      </trkpt>
      <trkpt lat="47.57316" lon="4.97834">
        <ele>387</ele>
        <time>2020-12-12T18:44:53Z</time>
      </trkpt>
      <trkpt lat="47.5733" lon="4.97995">
        <ele>392</ele>
        <time>2020-12-12T18:44:53Z</time>
      </trkpt>
      <trkpt lat="47.57309" lon="4.9814">
        <ele>396</ele>
        <time>2020-12-12T18:44:53Z</time>
      </trkpt>
      <trkpt lat="47.57287" lon="4.98288">
        <ele>401</ele>
        <time>2020-12-12T18:44:53Z</time>
      </trkpt>
      <trkpt lat="47.57361" lon="4.98395">
        <ele>399</ele>
        <time>2020-12-12T18:44:53Z</time>
      </trkpt>
      <trkpt lat="47.57414" lon="4.98444">
        <ele>402</ele>
        <time>2020-12-12T18:44:53Z</time>
      </trkpt>
      <trkpt lat="47.57415" lon="4.98581">
        <ele>409</ele>
        <time>2020-12-12T18:44:53Z</time>
      </trkpt>
      <trkpt lat="47.57462" lon="4.98653">
        <ele>412</ele>
        <time>2020-12-12T18:44:53Z</time>
      </trkpt>
      <trkpt lat="47.5747" lon="4.9861">
        <ele>408</ele>
        <time>2020-12-12T18:44:53Z</time>
      </trkpt>
      <trkpt lat="47.57498" lon="4.98548">
        <ele>409</ele>
        <time>2020-12-12T18:44:53Z</time>
      </trkpt>
      <trkpt lat="47.57574" lon="4.98459">
        <ele>415</ele>
        <time>2020-12-12T18:44:53Z</time>
      </trkpt>
      <trkpt lat="47.57484" lon="4.98567">
        <ele>408</ele>
        <time>2020-12-12T18:44:53Z</time>
      </trkpt>
      <trkpt lat="47.57472" lon="4.9861">
        <ele>408</ele>
        <time>2020-12-12T18:44:53Z</time>
      </trkpt>
      <trkpt lat="47.57465" lon="4.98653">
        <ele>412</ele>
        <time>2020-12-12T18:44:53Z</time>
      </trkpt>
      <trkpt lat="47.5745" lon="4.98712">
        <ele>420</ele>
        <time>2020-12-12T18:44:53Z</time>
      </trkpt>
      <trkpt lat="47.57386" lon="4.98762">
        <ele>425</ele>
        <time>2020-12-12T18:44:53Z</time>
      </trkpt>
      <trkpt lat="47.57359" lon="4.98884">
        <ele>426</ele>
        <time>2020-12-12T18:44:53Z</time>
      </trkpt>
      <trkpt lat="47.57363" lon="4.9899">
        <ele>427</ele>
        <time>2020-12-12T18:44:53Z</time>
      </trkpt>
      <trkpt lat="47.57293" lon="4.98897">
        <ele>426</ele>
        <time>2020-12-12T18:44:53Z</time>
      </trkpt>
      <trkpt lat="47.57244" lon="4.98868">
        <ele>426</ele>
        <time>2020-12-12T18:44:53Z</time>
      </trkpt>
      <trkpt lat="47.5713" lon="4.98866">
        <ele>422</ele>
        <time>2020-12-12T18:44:53Z</time>
      </trkpt>
      <trkpt lat="47.57034" lon="4.98811">
        <ele>417</ele>
        <time>2020-12-12T18:44:53Z</time>
      </trkpt>
      <trkpt lat="47.56956" lon="4.9884">
        <ele>413</ele>
        <time>2020-12-12T18:44:53Z</time>
      </trkpt>
      <trkpt lat="47.56877" lon="4.98846">
        <ele>409</ele>
        <time>2020-12-12T18:44:53Z</time>
      </trkpt>
      <trkpt lat="47.56735" lon="4.98919">
        <ele>407</ele>
        <time>2020-12-12T18:44:53Z</time>
      </trkpt>
      <trkpt lat="47.56677" lon="4.98913">
        <ele>408</ele>
        <time>2020-12-12T18:44:53Z</time>
      </trkpt>
      <trkpt lat="47.56575" lon="4.98928">
        <ele>407</ele>
        <time>2020-12-12T18:44:53Z</time>
      </trkpt>
      <trkpt lat="47.56465" lon="4.98982">
        <ele>405</ele>
        <time>2020-12-12T18:44:53Z</time>
      </trkpt>
      <trkpt lat="47.56362" lon="4.98947">
        <ele>405</ele>
        <time>2020-12-12T18:44:53Z</time>
      </trkpt>
      <trkpt lat="47.56247" lon="4.98931">
        <ele>402</ele>
        <time>2020-12-12T18:44:53Z</time>
      </trkpt>
      <trkpt lat="47.56166" lon="4.98927">
        <ele>398</ele>
        <time>2020-12-12T18:44:53Z</time>
      </trkpt>
      <trkpt lat="47.56107" lon="4.98951">
        <ele>393</ele>
        <time>2020-12-12T18:44:53Z</time>
      </trkpt>
      <trkpt lat="47.56016" lon="4.9902">
        <ele>386</ele>
        <time>2020-12-12T18:44:53Z</time>
      </trkpt>
      <trkpt lat="47.55899" lon="4.9901">
        <ele>378</ele>
        <time>2020-12-12T18:44:53Z</time>
      </trkpt>
      <trkpt lat="47.55806" lon="4.99009">
        <ele>370</ele>
        <time>2020-12-12T18:44:53Z</time>
      </trkpt>
      <trkpt lat="47.55731" lon="4.98942">
        <ele>359</ele>
        <time>2020-12-12T18:44:53Z</time>
      </trkpt>
      <trkpt lat="47.55656" lon="4.99008">
        <ele>361</ele>
        <time>2020-12-12T18:44:53Z</time>
      </trkpt>
      <trkpt lat="47.55572" lon="4.99071">
        <ele>341</ele>
        <time>2020-12-12T18:44:53Z</time>
      </trkpt>
      <trkpt lat="47.55505" lon="4.99094">
        <ele>341</ele>
        <time>2020-12-12T18:44:53Z</time>
      </trkpt>
      <trkpt lat="47.5538" lon="4.99104">
        <ele>349</ele>
        <time>2020-12-12T18:44:53Z</time>
      </trkpt>
      <trkpt lat="47.5532" lon="4.99151">
        <ele>357</ele>
        <time>2020-12-12T18:44:53Z</time>
      </trkpt>
      <trkpt lat="47.55223" lon="4.99206">
        <ele>364</ele>
        <time>2020-12-12T18:44:53Z</time>
      </trkpt>
      <trkpt lat="47.5512" lon="4.99294">
        <ele>371</ele>
        <time>2020-12-12T18:44:53Z</time>
      </trkpt>
      <trkpt lat="47.55085" lon="4.99418">
        <ele>376</ele>
        <time>2020-12-12T18:44:53Z</time>
      </trkpt>
      <trkpt lat="47.55046" lon="4.99553">
        <ele>383</ele>
        <time>2020-12-12T18:44:53Z</time>
      </trkpt>
      <trkpt lat="47.55021" lon="4.99781">
        <ele>393</ele>
        <time>2020-12-12T18:44:53Z</time>
      </trkpt>
      <trkpt lat="47.54993" lon="4.99869">
        <ele>399</ele>
        <time>2020-12-12T18:44:53Z</time>
      </trkpt>
      <trkpt lat="47.54942" lon="4.99983">
        <ele>404</ele>
        <time>2020-12-12T18:44:53Z</time>
      </trkpt>
      <trkpt lat="47.54949" lon="5.00133">
        <ele>411</ele>
        <time>2020-12-12T18:44:53Z</time>
      </trkpt>
      <trkpt lat="47.54944" lon="5.00249">
        <ele>415</ele>
        <time>2020-12-12T18:44:53Z</time>
      </trkpt>
      <trkpt lat="47.54933" lon="5.00378">
        <ele>417</ele>
        <time>2020-12-12T18:44:53Z</time>
      </trkpt>
      <trkpt lat="47.54893" lon="5.00512">
        <ele>418</ele>
        <time>2020-12-12T18:44:53Z</time>
      </trkpt>
      <trkpt lat="47.5485" lon="5.00616">
        <ele>419</ele>
        <time>2020-12-12T18:44:53Z</time>
      </trkpt>
      <trkpt lat="47.54961" lon="5.00712">
        <ele>419</ele>
        <time>2020-12-12T18:44:53Z</time>
      </trkpt>
      <trkpt lat="47.54904" lon="5.00838">
        <ele>417</ele>
        <time>2020-12-12T18:44:53Z</time>
      </trkpt>
      <trkpt lat="47.54803" lon="5.0097">
        <ele>408</ele>
        <time>2020-12-12T18:44:53Z</time>
      </trkpt>
      <trkpt lat="47.54722" lon="5.01075">
        <ele>398</ele>
        <time>2020-12-12T18:44:53Z</time>
      </trkpt>
      <trkpt lat="47.54656" lon="5.01162">
        <ele>393</ele>
        <time>2020-12-12T18:44:53Z</time>
      </trkpt>
      <trkpt lat="47.5453" lon="5.01245">
        <ele>394</ele>
        <time>2020-12-12T18:44:53Z</time>
      </trkpt>
      <trkpt lat="47.54471" lon="5.01335">
        <ele>398</ele>
        <time>2020-12-12T18:44:53Z</time>
      </trkpt>
      <trkpt lat="47.54413" lon="5.01415">
        <ele>399</ele>
        <time>2020-12-12T18:44:53Z</time>
      </trkpt>
      <trkpt lat="47.54342" lon="5.01505">
        <ele>402</ele>
        <time>2020-12-12T18:44:53Z</time>
      </trkpt>
      <trkpt lat="47.54313" lon="5.016">
        <ele>401</ele>
        <time>2020-12-12T18:44:53Z</time>
      </trkpt>
      <trkpt lat="47.54215" lon="5.01661">
        <ele>403</ele>
        <time>2020-12-12T18:44:53Z</time>
      </trkpt>
      <trkpt lat="47.54146" lon="5.01787">
        <ele>410</ele>
        <time>2020-12-12T18:44:53Z</time>
      </trkpt>
      <trkpt lat="47.5409" lon="5.01828">
        <ele>416</ele>
        <time>2020-12-12T18:44:53Z</time>
      </trkpt>
      <trkpt lat="47.54031" lon="5.01868">
        <ele>418</ele>
        <time>2020-12-12T18:44:53Z</time>
      </trkpt>
      <trkpt lat="47.53992" lon="5.01869">
        <ele>424</ele>
        <time>2020-12-12T18:44:53Z</time>
      </trkpt>
      <trkpt lat="47.53927" lon="5.01809">
        <ele>440</ele>
        <time>2020-12-12T18:44:53Z</time>
      </trkpt>
      <trkpt lat="47.53896" lon="5.01778">
        <ele>447</ele>
        <time>2020-12-12T18:44:53Z</time>
      </trkpt>
      <trkpt lat="47.53863" lon="5.0172">
        <ele>455</ele>
        <time>2020-12-12T18:44:53Z</time>
      </trkpt>
      <trkpt lat="47.53896" lon="5.01691">
        <ele>459</ele>
        <time>2020-12-12T18:44:53Z</time>
      </trkpt>
      <trkpt lat="47.53858" lon="5.01587">
        <ele>471</ele>
        <time>2020-12-12T18:44:53Z</time>
      </trkpt>
      <trkpt lat="47.53812" lon="5.01601">
        <ele>471</ele>
        <time>2020-12-12T18:44:53Z</time>
      </trkpt>
      <trkpt lat="47.53825" lon="5.01728">
        <ele>448</ele>
        <time>2020-12-12T18:44:53Z</time>
      </trkpt>
      <trkpt lat="47.53776" lon="5.01792">
        <ele>435</ele>
        <time>2020-12-12T18:44:53Z</time>
      </trkpt>
      <trkpt lat="47.5373" lon="5.01843">
        <ele>422</ele>
        <time>2020-12-12T18:44:53Z</time>
      </trkpt>
      <trkpt lat="47.53669" lon="5.01896">
        <ele>406</ele>
        <time>2020-12-12T18:44:53Z</time>
      </trkpt>
      <trkpt lat="47.53595" lon="5.01814">
        <ele>400</ele>
        <time>2020-12-12T18:44:53Z</time>
      </trkpt>
      <trkpt lat="47.53564" lon="5.01731">
        <ele>401</ele>
        <time>2020-12-12T18:44:53Z</time>
      </trkpt>
      <trkpt lat="47.53524" lon="5.01623">
        <ele>399</ele>
        <time>2020-12-12T18:44:53Z</time>
      </trkpt>
      <trkpt lat="47.53489" lon="5.01505">
        <ele>395</ele>
        <time>2020-12-12T18:44:53Z</time>
      </trkpt>
      <trkpt lat="47.53483" lon="5.01458">
        <ele>395</ele>
        <time>2020-12-12T18:44:53Z</time>
      </trkpt>
      <trkpt lat="47.53516" lon="5.01287">
        <ele>387</ele>
        <time>2020-12-12T18:44:53Z</time>
      </trkpt>
      <trkpt lat="47.53538" lon="5.01148">
        <ele>380</ele>
        <time>2020-12-12T18:44:53Z</time>
      </trkpt>
      <trkpt lat="47.53548" lon="5.0095">
        <ele>374</ele>
        <time>2020-12-12T18:44:53Z</time>
      </trkpt>
      <trkpt lat="47.53598" lon="5.00778">
        <ele>363</ele>
        <time>2020-12-12T18:44:53Z</time>
      </trkpt>
      <trkpt lat="47.53627" lon="5.00603">
        <ele>345</ele>
        <time>2020-12-12T18:44:53Z</time>
      </trkpt>
      <trkpt lat="47.53581" lon="5.00473">
        <ele>339</ele>
        <time>2020-12-12T18:44:53Z</time>
      </trkpt>
      <trkpt lat="47.5355" lon="5.00378">
        <ele>337</ele>
        <time>2020-12-12T18:44:53Z</time>
      </trkpt>
      <trkpt lat="47.53492" lon="5.00242">
        <ele>335</ele>
        <time>2020-12-12T18:44:53Z</time>
      </trkpt>
      <trkpt lat="47.53442" lon="5.0017">
        <ele>331</ele>
        <time>2020-12-12T18:44:53Z</time>
      </trkpt>
      <trkpt lat="47.53368" lon="5.00078">
        <ele>327</ele>
        <time>2020-12-12T18:44:53Z</time>
      </trkpt>
      <trkpt lat="47.5335" lon="4.99973">
        <ele>328</ele>
        <time>2020-12-12T18:44:53Z</time>
      </trkpt>
      <trkpt lat="47.53317" lon="4.99832">
        <ele>324</ele>
        <time>2020-12-12T18:44:53Z</time>
      </trkpt>
      <trkpt lat="47.5337" lon="4.99746">
        <ele>349</ele>
        <time>2020-12-12T18:44:53Z</time>
      </trkpt>
      <trkpt lat="47.53332" lon="4.99603">
        <ele>348</ele>
        <time>2020-12-12T18:44:53Z</time>
      </trkpt>
      <trkpt lat="47.53286" lon="4.99475">
        <ele>330</ele>
        <time>2020-12-12T18:44:53Z</time>
      </trkpt>
      <trkpt lat="47.53265" lon="4.99401">
        <ele>319</ele>
        <time>2020-12-12T18:44:53Z</time>
      </trkpt>
      <trkpt lat="47.53221" lon="4.99373">
        <ele>319</ele>
        <time>2020-12-12T18:44:53Z</time>
      </trkpt>
      <trkpt lat="47.53201" lon="4.99291">
        <ele>317</ele>
        <time>2020-12-12T18:44:53Z</time>
      </trkpt>
      <trkpt lat="47.53209" lon="4.99125">
        <ele>311</ele>
        <time>2020-12-12T18:44:53Z</time>
      </trkpt>
      <trkpt lat="47.53314" lon="4.98968">
        <ele>311</ele>
        <time>2020-12-12T18:44:53Z</time>
      </trkpt>
      <trkpt lat="47.53312" lon="4.98817">
        <ele>303</ele>
        <time>2020-12-12T18:44:53Z</time>
      </trkpt>
    </trkseg>
  </trk>
</gpx>